Weather observations for the past three days for
Blytheville, Blytheville Municipal Airport
Imperial (Metric)
Date Time (cdt) Wind (mph) Vis. (mi.) Weather Sky Cond. Temperature (ºF) Relative Humidity Wind Chill (°F) Heat Index (°F) Pressure Precipitation (in)
Air Dwpt 6 hour altimeter (in) sea level (mb) 1 hr 3 hr 6 hr
Max. Min.
24 07:53 Vrbl 5 10.00 Fair CLR 82 72 72% 87 29.95 1013.9
24 06:53 Calm 10.00 Fair CLR 77 71.1 79 72 82% 79 29.94 1013.5
24 05:53 Calm 10.00 Fair CLR 73 69.1 87% 29.93 1013.1
24 04:53 N 3 10.00 Fair CLR 73 69.1 87% 29.91 1012.6
24 03:53 Calm 10.00 Fair CLR 75 69.1 82% 75 29.9 1012.2
24 02:53 N 5 10.00 Fair CLR 75.9 70 82% 77 29.89 1011.9
24 01:53 Calm 10.00 Fair CLR 77 69.1 77% 79 29.9 1012.1
24 00:53 Calm 10.00 Fair CLR 80.1 69.1 90 79 69% 83 29.9 1012.1
23 23:53 Calm 10.00 Fair CLR 81 71.1 72% 85 29.89 1012.0
23 22:53 Calm 10.00 Fair CLR 82.9 70 65% 87 29.89 1011.7
23 21:53 Calm 10.00 A Few Clouds FEW060 84.9 73.9 70% 92 29.87 1011.0
23 20:53 W 6 10.00 A Few Clouds FEW060 87.1 75.9 70% 98 29.85 1010.5
23 19:53 SW 7 10.00 Mostly Cloudy BKN055 89.1 75 63% 99 29.84 1010.2
23 18:53 SW 9 10.00 A Few Clouds FEW060 90 73.9 95 89.1 59% 99 29.84 1010.1
23 17:53 SW 9 10.00 Fair CLR 93 73.9 54% 103 29.84 1010.0
23 16:53 W 8 G 17 10.00 A Few Clouds FEW045 93.9 71.1 48% 101 29.84 1010.3
23 15:53 W 9 G 22 10.00 Mostly Cloudy BKN044 95 72 47% 103 29.85 1010.5
23 14:53 W 8 G 18 10.00 A Few Clouds FEW055 93 72 50% 101 29.86 1010.9
23 13:53 W 12 G 23 10.00 Mostly Cloudy BKN042 BKN049 91.9 72 52% 100 29.88 1011.4
23 12:53 SW 10 G 24 10.00 Mostly Cloudy BKN085 90 73 90 79 58% 98 29.88 1011.5
23 11:53 SW 12 10.00 Mostly Cloudy BKN100 86 73.9 67% 94 29.9 1012.1
23 10:53 SW 9 10.00 Mostly Cloudy BKN110 82.9 73.9 74% 89 29.89 1012.0
23 09:53 SW 12 10.00 Overcast OVC065 82 72 72% 87 29.9 1012.1
23 08:53 SW 12 10.00 Overcast FEW070 OVC090 82 71.1 69% 86 29.9 1012.3
23 07:53 SW 12 G 18 10.00 Overcast OVC090 80.1 70 71% 83 29.9 1012.3
23 06:53 SW 8 10.00 Partly Cloudy SCT120 79 69.1 79 77 72% 82 29.9 1012.1
23 05:53 SW 10 10.00 Fair CLR 78.1 68 71% 80 29.89 1012.0
23 04:53 SW 9 10.00 Fair CLR 78.1 68 71% 80 29.9 1012.1
23 03:53 SW 9 10.00 Fair CLR 78.1 68 71% 80 29.9 1012.3
23 02:53 SW 8 10.00 Fair CLR 78.1 68 71% 80 29.9 1012.3
23 01:53 SW 7 10.00 Fair CLR 78.1 69.1 74% 80 29.91 1012.6
23 00:53 SW 7 10.00 Fair CLR 78.1 70 90 78.1 76% 80 29.93 1013.1
22 23:53 SW 7 10.00 Fair CLR 79 71.1 77% 82 29.94 1013.5
22 22:53 S 6 10.00 Fair CLR 81 70 69% 84 29.94 1013.6
22 21:53 S 5 10.00 Fair CLR 82 71.1 69% 86 29.94 1013.4
22 20:53 S 5 10.00 Fair CLR 84 71.1 65% 89 29.93 1013.2
22 19:53 SW 6 10.00 Fair CLR 86 70 59% 91 29.94 1013.4
22 18:53 SW 7 10.00 Fair CLR 90 68 93 89.1 48% 94 29.94 1013.6
22 17:53 SW 8 G 18 10.00 Fair CLR 91 68 47% 95 29.95 1013.7
22 16:53 SW 8 G 18 10.00 Fair CLR 91 68 47% 95 29.96 1014.1
21 16:53 S 5 10.00 Partly Cloudy SCT070 91 61 37% 91 30.12 1019.7
21 15:53 E 7 10.00 A Few Clouds FEW065 91.9 64 40% 94 30.13 1020.1
21 14:53 NE 5 10.00 A Few Clouds FEW065 91 64.9 42% 93 30.15 1020.6
21 13:53 Calm 10.00 Fair CLR 91.9 57 31% 91 30.17 1021.3
21 12:53 SW 6 10.00 Mostly Cloudy FEW065 BKN085 91 68 93 75.9 47% 95 30.2 1022.3
21 11:53 Vrbl 3 10.00 Fair CLR 90 64 42% 91 30.21 1022.8
21 10:53 S 6 10.00 Fair CLR 89.1 66.9 48% 92 30.22 1023.0
21 09:53 SE 7 10.00 Fair CLR 87.1 68 53% 91 30.22 1023.2
21 08:53 SE 6 10.00 Fair CLR 84.9 68 57% 88 30.23 1023.3
Date Time (cdt) Wind (mph) Vis. (mi.) Weather Sky Cond. Air Dwpt Max. Min. Relative Humidity Wind Chill (°F) Heat Index (°F) altimeter (in) sea level (mb) 1 hr 3 hr 6 hr
6 hour
Temperature (ºF) Pressure Precipitation (in)